DECAYED

CZ-3A DEB, 35547 (Decayed)

Orbit data source: Space-Track

CZ-3A DEB, 35547 was space debris in LEO originally from a launch on Fri, 02 Feb 2007 UTC launched from the Xichang Space Center, China (XSC). Debris objects in space refer to the collection of defunct objects orbiting the Earth. Examples of debris include non-operational satellites, rocket bodies, and fragments generated from explosions, collisions, or faulty payload assembly.

Not visible in the next 10 days
Identifier
35547, 2007-003F
Orbit
Decayed
Country
Flag of CNCN / PRC
Related business
Manufacturer
Unknown
Mission
Decayed spacecraft
Bus & Motor
Unknown
Mass
Unknown
Launch date (UTC)
2007-02-02 (19 years ago)
Launch vehicle
Unknown
Launch site
Xichang Space Center, China (XSC)
Object type
Payload
Rocket body
Debris
Shape & HBR
Unknown shape, 0.1 m
Radar Cross Section
Medium (>0.1 m² and <1 m²)

Expand to show TLE details & history
Last TLE update: 1 month ago

TLE from 1 month ago
0 CZ-3A DEB
1 35547U 07003F   26085.43040051  .13743869 -13208-4  12715-1 0  9999
2 35547  24.4552 159.1796 0136047 153.3591 207.4007 15.94655189 41462
Epoch: 2026-03-26T10:19Z
TLE epoch observation values (Epoch: 2026-03-26T10:19:46.604Z)
Latitude
0.00001°
Longitude
-179.64402°
Altitude
367.871 km
Speed
7.645 km/s
True Right ascension
10h 36m 43s
True Declination
0° 00' 00"
Sunlit
Object was in full shadow at epoch
Visualization orbit readout
Latitude
Unknown
Longitude
Unknown
Altitude
Unknown
Speed
Unknown
Apparent Right ascension
Unknown
Apparent Declination
Unknown
Sunlit
N/A
Visualization observer readout
Local Sidereal Time
17:30:31
Azimuth
Unknown
Elevation
Unknown
Doppler factor
Unknown
Orbital elements
Apogee altitude
384.966 km
Perigee altitude
203.416 km
Semi-major axis
6,672.328 km
Eccentricity
0.0136
Inclination
24.4552°
RAAN
159.1796°
Arg. of periapsis
153.3591°
True anomaly
206.69393°
Mean anomaly
207.4007°
Eccentric anomaly
207.04626°
Mean motion
3.98224 °/min
Orbital period
90.4 mins
BSTAR
0.012715
Loading maneuver chart data...
Computing Atmospheric mass density...
Loading historical data...
Loading historical data...
Loading historical data...
Loading historical data...
Loading historical data...
Loading historical data...
Loading historical data...

Documentation

Showing up to 5 results
|